Volver al catálogo

STARLINK-32226

ActivoComunicacionesVLEO
NORAD 60426·PAYLOAD·🇺🇸 United States

Lanzado Aug 12, 2024 desde Cape Canaveral Space Force Station

Loading…

Próximos Pases (próximas 24 horas)

TLE

ActualizadoSource: CelesTrak SupGP

Época: Sep 14, 2026, 20:41 UTC

1 60426C 24144B   26257.86229167  .00029707  00000+0  87800-3 0  2573
2 60426  53.1590  55.8139 0001232  79.7499 130.4815 15.34364762    11

Sigue STARLINK-32226 en tiempo real con AllMySat

Download on the App Store